Wind_Speed
7 7 6 6 5 4 3 3 3 3 3 2 1 1 1 2 3 4 5 5 6 6 6 7 7 7 8 9 9 9 9 9 9 9 10 10 10 11 12 12 13 13 12
6 5 5 5 4 4 3 3 2 2 1 1 0 1 2 3 4 5 6 6 6 7 7 8 8 8 8 9 9 9 9 10 10 10 10 11 11 11 12 12 13 14 13
6 4 4 4 4 3 3 2 2 1 0 1 1 2 3 4 6 6 7 7 7 8 8 9 9 9 10 10 10 10 10 10 11 11 11 11 12 12 11 12 13 13 14
5 5 4 3 3 3 2 1 0 0 1 1 2 3 4 5 6 7 7 7 8 8 9 9 10 10 10 10 10 11 11 11 12 12 12 13 13 13 13 13 13 14 14
4 4 3 3 2 2 1 0 1 1 2 2 3 4 5 5 6 7 7 7 9 10 10 10 10 11 11 12 12 12 12 12 13 13 14 14 14 14 14 14 14 14 14
3 3 3 3 2 2 1 0 1 2 2 3 4 5 5 6 7 8 8 9 10 10 11 11 11 11 11 12 12 13 13 13 14 14 15 15 15 14 14 14 14 14 14
3 2 2 2 2 1 1 1 2 2 3 3 4 5 6 7 8 8 9 9 10 11 11 11 12 12 12 12 12 13 14 14 14 15 15 14 14 14 14 13 14 14 14
2 2 2 2 1 0 1 2 3 3 4 5 5 6 7 8 9 9 10 10 11 11 11 12 12 12 13 13 13 14 14 15 15 15 15 15 14 14 14 14 15 14 14
1 2 3 2 0 1 2 3 4 5 5 6 6 7 8 9 10 11 11 11 11 12 12 12 13 13 13 13 14 14 14 15 16 16 16 16 15 14 15 14 14 15 15
1 1 1 0 1 2 3 4 5 6 6 7 8 8 10 11 11 12 12 12 12 12 12 13 13 14 14 14 14 15 15 16 15 15 15 15 15 14 15 15 15 15 16
0 0 1 1 2 2 3 5 6 7 8 9 9 10 11 12 12 12 12 12 12 13 13 14 14 14 14 15 15 15 15 16 15 15 16 16 15 15 15 16 16 16 16
1 1 1 2 3 4 5 6 7 8 9 10 11 11 12 13 13 13 13 13 13 14 14 15 15 15 15 15 15 15 16 16 16 16 16 15 15 15 16 16 16 16 16
2 2 3 3 4 5 7 8 9 10 11 12 12 13 13 13 14 14 14 14 14 15 16 16 16 16 16 16 16 16 16 16 16 17 16 16 16 16 16 16 16 16 16
3 4 4 5 6 7 8 9 10 11 12 13 14 15 15 15 15 15 15 15 15 16 17 17 17 17 16 16 16 16 16 17 17 16 16 17 17 17 16 16 16 16 16
5 5 6 6 7 8 9 10 12 13 14 15 16 17 17 17 17 16 15 16 17 17 18 18 18 18 18 18 17 18 18 18 18 17 17 18 18 18 17 16 17 17 16
7 7 7 8 9 10 11 12 14 15 15 16 17 18 18 18 18 17 17 17 18 18 18 19 20 20 20 19 18 19 19 19 19 18 18 18 18 18 17 17 17 17 17
9 9 10 10 11 13 14 15 16 17 18 18 18 18 19 18 19 19 19 20 20 20 20 20 20 21 21 21 20 19 19 19 19 19 19 19 18 18 18 17 17 17 17
11 11 12 13 14 15 15 16 17 18 19 19 20 20 19 19 20 20 21 21 21 22 22 22 22 22 22 22 21 20 20 20 20 19 20 20 19 19 19 18 18 18 18
13 14 15 16 16 16 17 18 19 19 20 20 20 20 20 20 21 22 22 22 23 23 23 23 23 23 23 23 22 22 22 21 21 21 20 20 20 20 20 19 19 19 19
17 17 17 17 17 18 18 19 20 20 20 20 20 21 22 23 24 24 24 24 24 24 24 25 25 24 24 24 24 23 23 23 23 22 21 21 21 21 21 20 20 20 20
18 18 18 18 19 19 20 21 21 21 22 22 23 23 24 24 24 25 24 24 25 26 26 26 25 25 25 24 24 25 24 24 24 23 23 22 22 22 21 21 21 20 21
18 18 19 20 20 21 22 23 23 24 24 24 24 25 25 25 25 25 26 26 26 27 27 27 26 27 27 26 26 26 25 25 24 24 24 24 24 23 23 22 22 21 21
21 20 20 21 21 22 24 25 25 25 26 26 26 26 27 27 26 27 27 28 28 28 28 28 28 28 27 27 26 26 26 26 25 25 25 25 24 24 23 23 22 23 23
22 22 22 22 23 25 26 27 27 27 27 28 28 28 28 28 27 27 28 28 29 29 29 29 29 29 28 28 27 27 27 27 26 26 26 26 26 25 25 25 25 24 25
25 25 26 26 27 27 28 28 29 28 29 29 29 29 30 30 30 30 30 30 30 30 30 31 30 29 29 28 27 27 27 27 27 27 27 27 27 26 27 27 26 26 26
28 28 29 29 29 29 30 31 31 31 31 31 31 31 31 31 31 31 31 30 30 30 31 32 31 30 29 28 28 27 27 27 28 28 28 29 28 28 28 28 28 27 28
Wind_Direction
131 139 142 139 137 135 131 133 137 145 130 110 96 59 356 337 332 325 320 319 315 309 307 302 301 296 295 295 296 288 286 287 287 286 282 277 280 274 267 265 262 260 258
124 129 129 133 144 146 144 142 160 153 142 148 301 320 327 321 318 316 313 315 313 310 308 309 306 303 300 296 296 294 289 285 283 285 283 276 275 277 275 271 266 262 258
125 119 120 135 134 139 144 138 150 148 161 266 285 305 316 320 317 313 312 312 312 310 311 312 307 303 301 299 297 295 293 286 281 282 279 279 276 277 280 275 272 266 259
129 125 114 124 136 133 135 127 112 290 299 295 299 304 308 316 317 315 315 310 309 309 309 310 307 303 300 301 297 295 295 291 284 281 279 280 279 277 276 274 271 269 261
135 139 132 131 136 132 124 71 329 309 321 316 310 311 315 316 318 314 308 306 305 304 305 306 305 300 298 295 296 295 295 293 288 286 285 283 280 278 273 269 268 268 265
136 139 135 130 132 123 108 359 320 309 319 325 322 321 322 317 313 312 308 308 308 307 308 304 303 301 298 296 296 296 295 293 291 288 287 284 283 279 275 272 269 268 267
165 168 152 146 143 127 27 347 339 329 322 321 319 319 320 316 314 314 312 311 311 310 310 308 306 303 300 299 297 297 295 293 292 290 288 284 282 278 278 275 273 270 268
181 189 172 174 179 166 5 355 340 328 321 316 314 315 317 314 311 313 313 311 310 309 309 306 304 305 302 299 296 294 294 293 293 292 289 282 281 281 278 276 270 267 269
165 185 178 164 90 19 346 336 332 326 320 317 317 318 315 314 315 314 314 311 309 309 308 305 305 304 303 301 297 295 294 294 293 291 290 283 281 283 279 276 271 267 269
120 181 166 262 316 324 330 331 328 326 322 317 316 314 313 311 312 314 312 311 310 312 312 307 306 304 301 299 298 297 295 297 295 291 286 283 283 284 280 276 272 270 269
18 163 88 353 322 327 338 338 334 328 322 317 315 315 315 311 312 312 313 313 312 311 311 310 308 306 303 301 299 298 296 296 295 292 286 283 283 283 283 278 273 272 272
351 337 356 347 334 328 325 322 322 324 324 322 320 316 316 314 312 312 313 313 312 312 309 307 308 306 305 303 301 299 298 298 296 293 289 286 285 283 282 281 276 273 273
337 339 339 336 332 328 323 318 318 322 323 322 321 320 320 319 314 311 310 311 310 310 308 307 308 304 302 301 299 300 301 300 298 294 291 289 287 284 282 279 278 276 275
325 323 321 322 321 320 320 319 318 318 321 321 320 317 317 317 314 310 308 308 308 308 307 307 305 304 303 302 301 301 301 300 297 295 293 291 289 285 284 281 278 276 273
306 310 311 315 316 317 321 321 321 321 321 321 319 317 316 314 314 309 308 307 305 305 306 306 307 304 302 298 299 299 298 297 296 292 292 291 290 287 283 281 278 276 274
294 296 302 307 311 314 315 315 316 317 318 316 315 314 314 313 313 312 310 307 307 305 305 305 304 303 302 297 295 297 298 297 294 291 290 291 289 287 284 281 281 279 277
288 291 296 301 304 307 309 311 312 312 312 313 314 311 310 311 311 310 309 309 308 306 305 305 304 304 304 302 297 295 296 296 293 289 289 289 289 286 283 280 278 277 276
286 289 294 298 300 301 304 305 308 310 309 309 310 311 309 311 312 311 309 307 306 306 305 305 302 302 302 303 298 295 293 293 291 287 285 285 284 285 284 281 278 277 275
287 288 290 293 295 297 300 304 307 309 308 308 307 309 309 309 310 309 306 305 304 305 303 303 301 300 300 300 298 295 292 290 290 287 285 284 284 284 283 281 278 278 278
287 286 287 288 292 294 297 301 303 304 306 307 306 305 306 306 307 308 306 304 303 303 302 301 301 300 299 298 297 294 291 288 288 286 284 283 282 282 281 281 279 277 277
286 285 286 287 291 294 295 299 302 302 303 303 302 303 303 303 304 305 305 304 303 302 301 300 298 298 297 296 295 294 292 290 287 286 284 281 280 280 279 279 278 277 277
283 284 284 289 291 292 296 298 300 300 300 300 300 301 302 301 301 302 302 302 301 300 300 298 296 295 295 292 292 292 290 289 287 285 284 282 280 278 277 276 276 276 275
281 284 284 288 292 293 294 296 297 298 298 298 297 298 299 299 299 300 300 300 298 297 297 295 295 295 293 291 291 290 288 287 286 285 284 283 282 279 276 275 274 274 274
280 281 283 286 290 292 292 293 294 295 296 296 296 296 297 298 298 299 299 298 297 295 294 295 294 294 291 290 289 289 287 286 284 283 282 282 281 280 278 276 274 273 273
278 282 284 287 289 290 290 291 293 294 296 296 295 297 298 298 297 298 298 298 297 294 293 294 294 291 290 287 286 286 286 285 284 283 283 282 280 278 277 276 275 273 272
277 280 283 285 286 287 288 289 291 293 294 295 296 296 296 297 297 297 298 298 297 294 292 292 292 290 289 286 284 283 284 284 284 283 282 280 279 277 276 275 274 272 272
Height
5896 5896 5896 5897 5898 5898 5898 5899 5899 5899 5899 5899 5899 5899 5899 5899 5898 5898 5897 5896 5896 5895 5894 5893 5892 5891 5891 5890 5889 5888 5888 5887 5886 5886 5885 5885 5885 5885 5884 5884 5884 5884 5885
5897 5897 5897 5897 5898 5899 5899 5899 5899 5899 5899 5900 5899 5899 5899 5898 5898 5897 5897 5896 5895 5894 5893 5892 5891 5890 5889 5888 5888 5887 5886 5885 5885 5884 5883 5883 5883 5882 5882 5882 5882 5882 5882
5897 5898 5898 5898 5899 5899 5899 5899 5900 5900 5899 5899 5899 5899 5899 5898 5898 5897 5896 5895 5894 5893 5892 5891 5890 5889 5888 5887 5886 5885 5884 5883 5883 5882 5881 5881 5880 5880 5879 5879 5879 5879 5879
5898 5899 5899 5899 5899 5899 5900 5900 5900 5900 5899 5899 5899 5899 5899 5898 5897 5896 5895 5894 5893 5892 5891 5889 5888 5887 5886 5885 5884 5883 5882 5881 5880 5879 5879 5878 5878 5877 5877 5876 5876 5876 5876
5899 5899 5900 5900 5900 5900 5900 5900 5900 5900 5899 5899 5899 5898 5898 5897 5896 5895 5894 5893 5891 5890 5889 5888 5886 5885 5884 5883 5882 5881 5880 5879 5878 5877 5876 5875 5875 5874 5874 5873 5873 5873 5873
5900 5900 5900 5900 5900 5900 5900 5900 5900 5900 5899 5899 5898 5898 5897 5896 5895 5893 5892 5891 5890 5889 5887 5886 5884 5883 5882 5881 5880 5879 5877 5876 5875 5874 5873 5872 5871 5871 5870 5870 5870 5870 5869
5900 5900 5900 5901 5901 5901 5900 5900 5900 5899 5899 5898 5898 5897 5896 5895 5894 5892 5891 5890 5888 5887 5885 5884 5882 5881 5880 5878 5877 5876 5875 5873 5872 5871 5870 5869 5868 5867 5867 5867 5867 5866 5866
5899 5900 5900 5900 5901 5901 5900 5900 5899 5899 5898 5897 5897 5896 5895 5894 5892 5891 5890 5888 5887 5885 5883 5882 5880 5879 5877 5876 5874 5873 5872 5870 5869 5868 5866 5865 5865 5864 5864 5863 5863 5863 5863
5900 5900 5900 5900 5900 5900 5900 5900 5899 5898 5898 5897 5896 5895 5894 5892 5891 5890 5888 5886 5884 5883 5881 5880 5878 5876 5875 5873 5872 5870 5869 5867 5866 5864 5863 5862 5862 5861 5860 5860 5860 5859 5859
5900 5900 5900 5900 5900 5900 5900 5899 5898 5898 5897 5896 5894 5893 5892 5890 5889 5888 5886 5884 5882 5880 5879 5877 5876 5874 5872 5871 5869 5867 5866 5864 5863 5861 5860 5859 5858 5857 5857 5856 5856 5856 5856
5899 5899 5899 5900 5900 5899 5899 5898 5897 5896 5895 5894 5893 5891 5890 5888 5886 5885 5883 5881 5880 5878 5876 5874 5873 5871 5869 5868 5866 5864 5863 5861 5859 5858 5856 5855 5855 5854 5853 5852 5852 5852 5851
5899 5899 5899 5899 5899 5898 5898 5897 5896 5895 5894 5892 5891 5890 5888 5886 5884 5882 5881 5879 5877 5875 5873 5872 5870 5868 5866 5864 5863 5861 5859 5858 5856 5855 5853 5852 5851 5850 5849 5849 5848 5847 5847
5899 5899 5898 5898 5897 5897 5896 5895 5894 5893 5892 5890 5889 5887 5885 5883 5882 5880 5878 5876 5874 5872 5871 5869 5867 5865 5863 5861 5859 5858 5856 5854 5853 5851 5850 5848 5847 5846 5845 5845 5844 5843 5843
5898 5898 5897 5897 5896 5895 5894 5893 5892 5891 5890 5888 5886 5884 5882 5881 5879 5876 5875 5874 5872 5870 5868 5866 5863 5861 5859 5857 5856 5854 5852 5851 5849 5848 5846 5845 5844 5842 5841 5841 5840 5839 5838
5897 5896 5896 5895 5894 5893 5892 5891 5890 5889 5887 5885 5884 5881 5880 5877 5875 5873 5871 5870 5869 5866 5865 5862 5860 5858 5855 5854 5852 5850 5848 5847 5845 5844 5842 5841 5840 5838 5837 5836 5836 5835 5834
5895 5895 5894 5893 5892 5891 5890 5889 5888 5886 5884 5882 5880 5878 5876 5874 5872 5870 5868 5866 5865 5863 5860 5858 5856 5853 5851 5849 5847 5845 5844 5842 5840 5839 5838 5836 5835 5834 5833 5832 5831 5831 5830
5893 5892 5892 5891 5890 5889 5888 5886 5885 5883 5881 5879 5877 5875 5873 5871 5869 5866 5864 5862 5860 5858 5856 5854 5851 5849 5846 5844 5842 5840 5839 5837 5835 5834 5833 5831 5830 5829 5828 5827 5827 5826 5825
5891 5890 5889 5888 5887 5886 5884 5883 5881 5879 5877 5875 5873 5871 5869 5867 5865 5862 5860 5858 5856 5854 5852 5849 5847 5844 5842 5839 5837 5835 5833 5832 5830 5829 5827 5826 5825 5824 5823 5822 5822 5821 5820
5887 5886 5886 5884 5883 5882 5881 5879 5877 5875 5873 5871 5869 5867 5865 5862 5860 5858 5855 5853 5851 5849 5846 5844 5842 5839 5837 5834 5832 5830 5828 5826 5825 5823 5822 5821 5820 5819 5818 5817 5816 5816 5815
5883 5882 5882 5881 5879 5878 5876 5875 5872 5870 5868 5866 5864 5862 5860 5858 5855 5853 5850 5848 5845 5843 5841 5838 5836 5834 5831 5829 5826 5824 5822 5820 5819 5817 5816 5815 5814 5813 5812 5811 5810 5810 5809
5879 5878 5877 5876 5875 5873 5872 5870 5868 5866 5864 5862 5860 5857 5855 5852 5850 5847 5845 5842 5840 5837 5835 5832 5830 5828 5825 5823 5821 5818 5816 5814 5813 5811 5810 5809 5808 5807 5806 5805 5804 5803 5803
5874 5873 5872 5871 5869 5868 5866 5865 5863 5861 5858 5856 5854 5852 5849 5847 5844 5841 5838 5835 5833 5831 5828 5826 5823 5821 5819 5816 5814 5812 5810 5808 5806 5805 5803 5802 5801 5800 5799 5798 5798 5797 5796
5869 5868 5866 5865 5864 5862 5861 5859 5857 5855 5853 5850 5848 5845 5843 5840 5838 5835 5832 5829 5826 5823 5821 5819 5816 5813 5811 5809 5807 5804 5802 5801 5799 5798 5796 5795 5794 5793 5792 5791 5791 5790 5790
5863 5862 5860 5859 5857 5856 5854 5852 5850 5848 5846 5843 5841 5838 5836 5833 5830 5828 5825 5822 5819 5816 5813 5811 5808 5806 5804 5801 5799 5797 5795 5793 5792 5790 5789 5788 5786 5785 5784 5784 5784 5783 5783
5856 5855 5854 5852 5850 5849 5847 5845 5842 5840 5838 5836 5833 5831 5828 5826 5823 5820 5817 5814 5811 5808 5805 5803 5800 5797 5795 5793 5791 5789 5787 5785 5784 5783 5781 5780 5779 5777 5776 5776 5776 5775 5775
5848 5847 5846 5844 5843 5840 5839 5837 5835 5833 5830 5828 5825 5822 5820 5817 5814 5811 5809 5806 5802 5799 5797 5794 5791 5789 5786 5784 5782 5780 5778 5777 5775 5774 5773 5771 5770 5769 5768 5768 5767 5767 5767